Delta, CO

5:49 PM MDT on May 21, 2018 (GMT -0600)
Delta

Weather History for KAJZ - July, 2013

Change the Weather History Date:

Saturday, July 20, 2013

  Actual Average (KMTJ) Record (KMTJ)
Temperature  
Mean Temperature 80 °F -  
Max Temperature 96 °F 88 °F 100 °F (1998)
Min Temperature 63 °F 56 °F 52 °F (2000)
Cooling Degree Days 14    
Growing Degree Days 30 (Base 50)    
Moisture  
Dew Point 49 °F    
Average Humidity 39    
Maximum Humidity 72    
Minimum Humidity 11    
Precipitation  
Precipitation 0.00 in - - ()
Sea Level Pressure  
Sea Level Pressure 30.05 in    
Wind  
Wind Speed 4 mph (East)    
Max Wind Speed 14 mph    
Max Gust Speed 17 mph    
Visibility 10 miles    
Events      
Averages and records for this station are not official NWS values.
T = Trace of Precipitation, MM = Missing Value Source: NWS Daily Summary

Daily Weather History Graph

Daily Weather History Graph

Search for Another Location

Airport or City:

Astronomy

Jul. 20, 2013 Rise Set
Actual Time 6:03 AM MDT 8:33 PM MDT
Civil Twilight 5:32 AM MDT 9:03 PM MDT
Nautical Twilight 4:54 AM MDT 9:41 PM MDT
Astronomical Twilight 4:12 AM MDT 10:23 PM MDT
Moon 6:39 PM MDT (7/20) 3:46 AM MDT (7/20)
Length of Visible Light 15h 30m
Length of Day
14h 29m
Waxing Gibbous, 94% of the Moon is Illuminated
Jul 20
Waxing Gibbous
Jul 22
Full
Jul 29
Last Quarter
Aug 6
New
Aug 14
First Quarter

Hourly Weather History & Observations

Time (MDT) Temp. Heat Index Dew Point Humidity Pressure Visibility Wind Dir Wind Speed Gust Speed Precip Events Conditions
12:15 AM 71.1 °F - 56.7 °F 60% 30.13 in 10.0 mi NNE 3.5 mph - N/A   Clear
12:35 AM 70.7 °F - 57.2 °F 62% 30.13 in 10.0 mi North 3.5 mph - N/A   Clear
12:55 AM 70.9 °F - 56.5 °F 60% 30.13 in 7.0 mi North 5.8 mph - N/A   Clear
1:15 AM 70.3 °F - 57.0 °F 63% 30.13 in 10.0 mi NNW 4.6 mph - N/A   Clear
1:35 AM 71.1 °F - 57.0 °F 61% 30.12 in 10.0 mi Calm Calm - N/A   Clear
1:55 AM 71.8 °F - 56.8 °F 59% 30.12 in 10.0 mi West 3.5 mph - N/A   Clear
2:15 AM 71.6 °F - 57.2 °F 60% 30.12 in 10.0 mi West 3.5 mph - N/A   Clear
2:35 AM 71.1 °F - 57.2 °F 61% 30.12 in 10.0 mi Calm Calm - N/A   Clear
2:55 AM 70.2 °F - 57.2 °F 63% 30.12 in 10.0 mi NE 4.6 mph - N/A   Clear
3:15 AM 69.1 °F - 56.1 °F 63% 30.12 in 10.0 mi NNE 4.6 mph - N/A   Clear
3:35 AM 68.2 °F - 56.5 °F 66% 30.12 in 10.0 mi Calm Calm - N/A   Clear
3:55 AM 67.5 °F - 56.3 °F 67% 30.12 in 10.0 mi NNE 5.8 mph - N/A   Clear
4:15 AM 67.1 °F - 55.8 °F 67% 30.11 in 10.0 mi NE 3.5 mph - N/A   Clear
4:35 AM 66.4 °F - 55.6 °F 68% 30.12 in 10.0 mi Calm Calm - N/A   Clear
4:55 AM 65.5 °F - 55.9 °F 71% 30.12 in 10.0 mi Calm Calm - N/A   Clear
5:15 AM 64.9 °F - 55.8 °F 72% 30.12 in 10.0 mi NNE 4.6 mph - N/A   Clear
5:35 AM 64.6 °F - 55.4 °F 72% 30.13 in 10.0 mi Calm Calm - N/A   Clear
5:55 AM 63.7 °F - 54.7 °F 72% 30.13 in 10.0 mi NE 4.6 mph - N/A   Clear
6:15 AM 63.9 °F - 54.5 °F 72% 30.13 in 7.0 mi NNE 6.9 mph - N/A   Clear
6:35 AM 65.5 °F - 54.5 °F 68% 30.13 in 7.0 mi ENE 3.5 mph - N/A   Clear
6:55 AM 66.2 °F - 55.4 °F 68% 30.13 in 10.0 mi Calm Calm - N/A   Clear
7:15 AM 65.8 °F - 55.6 °F 69% 30.14 in 10.0 mi Calm Calm - N/A   Clear
7:35 AM 67.6 °F - 54.5 °F 63% 30.15 in 10.0 mi East 4.6 mph - N/A   Clear
7:55 AM 70.3 °F - 54.1 °F 56% 30.15 in 10.0 mi ENE 4.6 mph - N/A   Clear
8:15 AM 72.0 °F - 53.1 °F 51% 30.15 in 10.0 mi East 3.5 mph - N/A   Clear
8:35 AM 72.9 °F - 52.9 °F 49% 30.15 in 7.0 mi East 3.5 mph - N/A   Clear
8:55 AM 75.2 °F - 52.5 °F 45% 30.15 in 7.0 mi East 5.8 mph - N/A   Clear
9:15 AM 76.3 °F - 52.7 °F 44% 30.14 in 10.0 mi East 5.8 mph - N/A   Clear
9:35 AM 77.7 °F - 52.5 °F 41% 30.13 in 7.0 mi ENE 3.5 mph - N/A   Clear
9:55 AM 78.8 °F - 52.2 °F 39% 30.13 in 7.0 mi Calm Calm - N/A   Clear
10:15 AM 80.1 °F - 52.2 °F 38% 30.12 in 10.0 mi East 3.5 mph - N/A   Clear
10:35 AM 80.8 °F - 52.5 °F 37% 30.12 in 10.0 mi Calm Calm - N/A   Clear
10:55 AM 81.7 °F 80.9 °F 53.2 °F 37% 30.12 in 7.0 mi Calm Calm - N/A   Clear
11:15 AM 83.5 °F - 50.9 °F 32% 30.11 in 10.0 mi SSE 4.6 mph - N/A   Clear
11:35 AM 84.0 °F - 50.5 °F 31% 30.10 in 10.0 mi SSE 4.6 mph - N/A   Clear
11:55 AM 85.1 °F - 50.4 °F 30% 30.09 in 10.0 mi SE 3.5 mph - N/A   Clear
12:15 PM 86.0 °F - 50.4 °F 29% 30.09 in 7.0 mi SSW 3.5 mph - N/A   Clear
12:35 PM 87.3 °F - 48.4 °F 26% 30.08 in 10.0 mi Calm Calm - N/A   Clear
12:55 PM 88.2 °F - 48.4 °F 25% 30.07 in 10.0 mi South 8.1 mph - N/A   Clear
1:15 PM 90.1 °F - 49.6 °F 25% 30.06 in 10.0 mi Calm Calm - N/A   Clear
1:35 PM 90.7 °F - 49.1 °F 24% 30.05 in 10.0 mi West 3.5 mph - N/A   Clear
1:55 PM 91.4 °F - 48.6 °F 23% 30.04 in 10.0 mi SSW 8.1 mph - N/A   Clear
2:15 PM 92.7 °F - 43.7 °F 18% 30.03 in 10.0 mi SSW 4.6 mph - N/A   Clear
2:35 PM 93.4 °F - 42.6 °F 17% 30.02 in 10.0 mi SSW 5.8 mph - N/A   Clear
2:55 PM 93.7 °F - 48.6 °F 21% 30.01 in 10.0 mi Calm Calm - N/A   Clear
3:15 PM 95.9 °F - 49.3 °F 20% 30.00 in 10.0 mi SW 5.8 mph - N/A   Clear
3:35 PM 95.9 °F - 48.2 °F 20% 29.99 in 10.0 mi SSW 8.1 mph - N/A   Clear
3:55 PM 93.6 °F - 45.5 °F 19% 29.98 in 10.0 mi SW 5.8 mph - N/A   Clear
4:15 PM 93.7 °F - 44.8 °F 18% 29.97 in 10.0 mi SSW 6.9 mph - N/A   Clear
4:35 PM 94.6 °F - 45.7 °F 19% 29.96 in 10.0 mi South 5.8 mph - N/A   Clear
4:55 PM 95.2 °F - 41.0 °F 15% 29.95 in 10.0 mi SSW 8.1 mph - N/A   Clear
5:15 PM 96.4 °F - 37.6 °F 13% 29.95 in 10.0 mi South 10.4 mph - N/A   Clear
5:35 PM 96.4 °F - 36.7 °F 12% 29.93 in 10.0 mi South 10.4 mph - N/A   Clear
5:55 PM 96.3 °F - 35.2 °F 12% 29.92 in 10.0 mi South 12.7 mph 17.3 mph N/A   Clear
6:15 PM 96.1 °F - 36.0 °F 12% 29.92 in 10.0 mi ESE 13.8 mph - N/A   Clear
6:35 PM 94.1 °F - 33.3 °F 12% 29.93 in 10.0 mi SE 6.9 mph - N/A   Clear
6:55 PM 94.3 °F - 35.6 °F 13% 29.93 in 10.0 mi Calm Calm - N/A   Clear
7:15 PM 95.0 °F - 33.3 °F 11% 29.93 in 10.0 mi Calm Calm - N/A   Clear
7:35 PM 94.3 °F - 33.3 °F 12% 29.93 in 10.0 mi Calm Calm - N/A   Clear
7:55 PM 93.4 °F - 35.6 °F 13% 29.93 in 10.0 mi Calm Calm - N/A   Clear
8:15 PM 89.6 °F - 44.4 °F 21% 29.93 in 10.0 mi North 3.5 mph - N/A   Clear
8:35 PM 88.3 °F - 40.8 °F 19% 29.93 in 10.0 mi Calm Calm - N/A   Clear
8:55 PM 86.5 °F - 43.2 °F 22% 29.93 in 10.0 mi West 4.6 mph - N/A   Clear
9:15 PM 82.4 °F - 46.4 °F 28% 29.94 in 10.0 mi NNE 4.6 mph - N/A   Clear
9:35 PM 81.1 °F - 42.4 °F 25% 29.95 in 10.0 mi East 5.8 mph - N/A   Clear
9:55 PM 81.5 °F - 39.6 °F 22% 29.96 in 10.0 mi ENE 6.9 mph - N/A   Clear
10:15 PM 79.0 °F - 40.5 °F 25% 29.96 in 10.0 mi ENE 5.8 mph - N/A   Clear
10:35 PM 75.7 °F - 44.1 °F 32% 29.96 in 10.0 mi SSE 4.6 mph - N/A   Clear
10:55 PM 75.0 °F - 43.3 °F 32% 29.97 in 10.0 mi NNE 4.6 mph - N/A   Clear
11:15 PM 73.2 °F - 46.2 °F 38% 29.97 in 10.0 mi NE 6.9 mph - N/A   Clear
11:35 PM 75.4 °F - 42.1 °F 30% 29.98 in 10.0 mi NE 9.2 mph - N/A   Clear
11:55 PM 75.7 °F - 41.5 °F 29% 29.99 in 10.0 mi ENE 5.8 mph - N/A   Clear